[[[{"header":{"parameterUnit":"kt","parameterCategory":2,"dx":1,"dy":1,"la1":30.253999710083008,"la2":30.299108505249023,"lo1":-89.0895004272461,"lo2":-89.04439544677734,"nx":28,"ny":28,"refTime":"2022-10-18T21:00:00:Z","depth":0,"parameterNumber":1,"parameterNumberName":"U-component_of_WINDS"},"data":[4.3307,4.3368,4.3392,4.3473,4.3508,4.3568,4.3597,4.3638,4.3676,4.3752,4.3799,4.3831,4.3881,4.3945,4.3999,4.4013,4.4033,4.4037,4.4052,4.4013,4.4009,4.4006,4.3992,4.4041,4.4041,4.4088,4.4088,4.4089,4.3276,4.3311,4.3361,4.3425,4.3468,4.3479,4.3532,4.3568,4.3621,4.367,4.3719,4.3787,4.3846,4.3896,4.3956,4.3986,4.3996,4.4001,4.3999,4.4006,4.3966,4.3951,4.3993,4.3993,4.3993,4.3993,4.3993,4.3992,4.3225,4.326,4.3313,4.3368,4.3407,4.345,4.3489,4.3527,4.3577,4.3641,4.3662,4.3724,4.3778,4.3864,4.39,4.395,4.3948,4.3963,4.3966,4.3969,4.3968,4.3895,4.3962,4.3962,4.3962,4.3962,4.3962,0,4.3194,4.3212,4.3261,4.3318,4.3359,4.3406,4.3453,4.3478,4.3526,4.3565,4.3625,4.3664,4.3741,4.3801,4.3864,4.3899,4.3915,4.392,4.393,4.392,4.3902,4.3911,4.3843,4.3918,4.3918,4.3918,4.3917,4.3917,4.3144,4.3183,4.325,4.3282,4.3313,4.3364,4.34,4.3438,4.3475,4.354,4.357,4.3631,4.3681,4.3774,4.382,4.3878,4.3887,4.3912,4.3896,4.3885,4.3886,4.3883,4.3887,4.3915,4.3915,4.3915,4.3915,0,4.3113,4.3152,4.322,4.3284,4.3301,4.3341,4.3395,4.3434,4.3467,4.3524,4.354,4.3592,4.3651,4.3693,4.3769,4.3789,4.3856,4.3864,4.3837,4.3841,4.3867,4.3864,4.3948,4.3961,4.3911,4.3911,4.3912,0,4.3084,4.3135,4.319,4.3228,4.3285,4.3323,4.3379,4.3413,4.346,4.3505,4.353,4.3572,4.3619,4.3668,4.3698,4.3761,4.3776,4.3795,4.3802,4.3792,4.3789,4.3812,4.3809,4.3818,4.3817,4.3817,4.3817,0,4.3031,4.312,4.3182,4.3208,4.3282,4.331,4.3342,4.3395,4.343,4.3483,4.3506,4.3565,4.3597,4.3643,4.368,4.3667,4.3758,4.3748,4.3777,4.3776,4.3795,4.3793,4.3858,4.3816,4.3816,4.3816,4.3815,0,4.3013,4.3064,4.3148,4.3209,4.3231,4.3273,4.3332,4.3377,4.3431,4.3452,4.3494,4.3515,4.3574,4.3561,4.3642,4.3614,4.3645,4.3669,4.3672,4.3679,4.3662,4.3692,4.375,4.3758,4.3686,4.3685,4.3684,0,4.2941,4.3036,4.3068,4.3148,4.3197,4.322,4.3268,4.3315,4.3346,4.3394,4.343,4.3485,4.3484,4.3507,4.3542,4.3581,4.3617,4.3578,4.3647,4.3649,4.363,4.3684,4.3682,4.3733,4.3671,4.3672,4.3673,0,4.2889,4.2977,4.2989,4.302,4.3088,4.313,4.3184,4.3246,4.3275,4.3327,4.3373,4.3452,4.3454,4.3492,4.3516,4.355,4.3594,4.3548,4.355,4.3554,4.3668,4.3665,4.3674,4.3603,4.3604,4.3606,4.3663,0,4.2853,4.2906,4.294,4.3009,4.3048,4.3101,4.3143,4.3179,4.3197,4.3229,4.3299,4.335,4.3414,4.3435,4.3454,4.3519,4.3515,4.3517,4.3507,4.3542,4.3562,4.357,4.3473,4.3473,4.3473,4.3473,0,0,4.2773,4.2849,4.2883,4.2936,4.2971,4.2994,4.3046,4.3083,4.3158,4.3182,4.3176,4.3294,4.3336,4.3417,4.3431,4.3458,4.3473,4.3459,4.3525,4.3531,4.3536,4.3557,4.3564,4.3473,4.3473,4.3473,4.3473,0,4.2768,4.2807,4.2858,4.2897,4.2957,4.2988,4.3,4.3064,4.3087,4.3155,4.3174,4.3222,4.3316,4.3357,4.339,4.3451,4.3463,4.3467,4.3484,4.3523,4.3529,4.3534,4.3555,4.3562,4.3473,4.3473,4.3473,0,4.2724,4.277,4.2798,4.2878,4.2918,4.2969,4.2968,4.3022,4.306,4.3085,4.3152,4.3187,4.3246,4.3317,4.3351,4.3347,4.3451,4.3426,4.3428,4.3432,4.3472,4.3479,4.3485,4.3406,4.3405,4.3405,0,0,4.2714,4.2763,4.2824,4.288,4.2904,4.2951,4.2982,4.3004,4.3055,4.3076,4.312,4.3171,4.3226,4.3261,4.3315,4.3387,4.3402,4.3416,4.3419,4.3422,4.3427,4.3468,4.3475,4.3403,4.3403,4.3403,0,0,4.2709,4.2782,4.279,4.286,4.2908,4.2973,4.3006,4.3019,4.3071,4.307,4.311,4.3125,4.3193,4.3226,4.3199,4.3312,4.3301,4.3308,4.3287,4.3292,4.3295,4.3286,4.3206,0,0,0,0,0,4.2725,4.2773,4.278,4.2798,4.2899,4.2969,4.2982,4.3015,4.3006,4.3032,4.3071,4.3082,4.322,4.3197,4.3215,4.3244,4.3383,4.3386,4.339,4.338,4.3384,4.3388,0,0,0,0,0,0,4.2733,4.2754,4.2779,4.2845,4.2868,4.2968,4.296,4.297,4.3004,4.3005,4.3074,4.3084,4.3114,4.319,4.3206,4.3233,4.3201,4.3384,4.3387,4.339,4.3381,4.3385,4.3388,0,0,0,0,0,4.2738,4.2756,4.291,4.2844,4.2865,4.292,4.2958,4.2967,4.2994,4.3054,4.3065,4.3016,4.3114,4.313,4.32,4.3225,4.3191,4.3196,4.3386,4.3389,4.3391,4.3383,0,0,0,0,0,0,4.2743,4.2765,4.2915,4.2922,4.2828,4.2915,4.2929,4.2964,4.3042,4.3052,4.2998,4.2998,4.3115,4.3127,4.3139,4.322,4.3182,4.3188,4.3191,4.3388,4.339,4.3392,0,0,0,0,0,0,4.2756,4.2771,4.2919,4.2897,4.2902,4.291,4.2923,4.2988,4.3042,4.2981,4.2983,4.2997,4.3097,4.3125,4.3134,4.3234,4.3175,4.3181,4.3185,4.3187,4.339,4.3391,0,0,0,0,0,0,4.2763,4.2776,4.2895,4.2899,4.2904,4.299,4.2968,4.3071,4.3022,4.2977,4.3018,4.3017,4.3095,4.3105,4.3131,4.3227,4.3232,4.3175,4.3179,4.3182,4.3184,0,0,0,0,0,0,0,4.2769,4.2672,4.2871,4.2901,4.2905,4.2991,4.2993,4.2995,4.3021,4.302,4.3019,4.3017,4.3143,4.3149,4.3155,4.3221,0,0,4.3175,4.3177,0,0,0,0,0,0,0,0,4.2667,4.2671,4.2871,4.2872,4.2874,4.2991,4.2993,4.2995,4.3021,4.302,4.3019,4.3018,4.3145,4.315,4.3155,0,0,0,0,0,0,0,0,0,0,0,0,0,0,0,4.2871,4.2872,0,4.2992,4.2993,4.2994,4.3021,4.302,4.3019,4.3018,4.3146,4.315,4.3154,0,0,0,0,0,0,0,0,0,0,0,0,0,0,0,0,0,0,0,0,0,0,0,0,0,0,0,0,0,0,0,0,0,0,0,0,0,0,0,0,0,0,0,0,0,0,0,0,0,0,0,0,0,0,0,0,0,0,0,0,0,0,0,0,0,0,0,0,0]}],[{"header":{"parameterUnit":"kt","parameterCategory":2,"dx":1,"dy":1,"la1":30.253999710083008,"la2":30.299108505249023,"lo1":-89.0895004272461,"lo2":-89.04439544677734,"nx":28,"ny":28,"refTime":"2022-10-18T21:00:00:Z","depth":0,"parameterNumber":2,"parameterNumberName":"V-component_of_WINDS"},"data":[2.1998,2.1977,2.1972,2.1945,2.1936,2.1916,2.1907,2.1895,2.1883,2.1857,2.1841,2.1833,2.1818,2.1796,2.1777,2.1773,2.1765,2.1759,2.1756,2.1786,2.179,2.1793,2.1798,2.1758,2.1758,2.1725,2.1724,2.1724,2.2014,2.2006,2.1991,2.1974,2.196,2.1962,2.1947,2.1935,2.1917,2.1904,2.1889,2.1865,2.1845,2.1833,2.1812,2.18,2.1799,2.1794,2.1794,2.1791,2.1824,2.1829,2.1795,2.1795,2.1795,2.1795,2.1795,2.1795,2.2043,2.2031,2.2019,2.2003,2.1993,2.1981,2.1968,2.196,2.1945,2.1926,2.1924,2.1903,2.1888,2.1862,2.1852,2.1834,2.1838,2.1831,2.1829,2.1827,2.1824,2.1868,2.1831,2.1831,2.1831,2.1831,2.1831,0,2.2062,2.2059,2.2047,2.2031,2.202,2.2008,2.1996,2.1988,2.1981,2.1969,2.195,2.1939,2.1915,2.1896,2.1877,2.1868,2.1868,2.1869,2.1863,2.1863,2.1864,2.186,2.191,2.187,2.187,2.187,2.187,2.1871,2.2089,2.2077,2.2064,2.2054,2.2048,2.2034,2.2024,2.202,2.2009,2.1993,2.1983,2.1965,2.195,2.192,2.1911,2.1893,2.1892,2.1877,2.189,2.1889,2.1889,2.1889,2.1886,2.1874,2.1873,2.1873,2.1873,0,2.2104,2.2099,2.208,2.2068,2.2065,2.2052,2.2041,2.2029,2.2023,2.2005,2.2001,2.1992,2.1974,2.1967,2.1946,2.1943,2.1915,2.1917,2.1919,2.1919,2.1902,2.1903,2.1855,2.1847,2.1891,2.189,2.189,0,2.2124,2.2109,2.2102,2.2092,2.2074,2.2071,2.2053,2.2047,2.2037,2.2023,2.2023,2.201,2.2005,2.199,2.1985,2.1963,2.1959,2.1955,2.1953,2.1954,2.1954,2.1947,2.1948,2.1955,2.1955,2.1955,2.1955,0,2.2147,2.2127,2.211,2.2105,2.2092,2.2083,2.2077,2.2067,2.2058,2.2045,2.2039,2.2024,2.2016,2.2004,2.1998,2.2007,2.1972,2.1983,2.1966,2.1966,2.1959,2.1959,2.1919,2.1956,2.1956,2.1956,2.1956,0,2.2163,2.2153,2.2129,2.2118,2.2113,2.2102,2.2088,2.2077,2.2066,2.2063,2.2054,2.2053,2.2036,2.2047,2.2021,2.2034,2.2024,2.2019,2.2018,2.2015,2.2027,2.2002,2.1967,2.1962,2.2012,2.2013,2.2013,0,2.2189,2.2165,2.2164,2.2142,2.213,2.2132,2.2119,2.211,2.2106,2.2094,2.2088,2.2075,2.2082,2.2077,2.2066,2.2059,2.2043,2.2062,2.204,2.2039,2.2041,2.2009,2.2004,2.1976,2.2019,2.2019,2.2018,0,2.2209,2.2196,2.2193,2.2186,2.2176,2.2167,2.2153,2.214,2.2132,2.2124,2.211,2.2093,2.2097,2.2089,2.2089,2.2077,2.2054,2.2083,2.2082,2.2075,2.2023,2.2018,2.2014,2.2055,2.2054,2.2054,2.2023,0,2.223,2.2219,2.221,2.2199,2.2192,2.2179,2.2176,2.2168,2.2168,2.2164,2.2146,2.2139,2.2126,2.2121,2.2121,2.2098,2.21,2.2105,2.2115,2.2095,2.2084,2.208,2.213,2.2131,2.2131,2.2131,0,0,2.2254,2.224,2.224,2.2228,2.2222,2.2226,2.2212,2.2206,2.2195,2.219,2.2195,2.217,2.2165,2.2143,2.2136,2.2132,2.2127,2.2135,2.2105,2.2102,2.2099,2.2088,2.2084,2.2131,2.2131,2.2132,2.2132,0,2.2262,2.2259,2.2247,2.2241,2.2233,2.2231,2.2228,2.2221,2.2218,2.2203,2.2205,2.2194,2.2176,2.2168,2.2162,2.2138,2.2139,2.2134,2.2121,2.2107,2.2104,2.2101,2.209,2.2086,2.2132,2.2132,2.2132,0,2.228,2.2275,2.227,2.2259,2.2254,2.2243,2.2252,2.2241,2.2233,2.2238,2.2222,2.2218,2.2209,2.219,2.2182,2.2186,2.2151,2.2163,2.2162,2.216,2.2147,2.2143,2.2139,2.2183,2.2184,2.2184,0,0,2.2286,2.2278,2.2273,2.226,2.2257,2.2254,2.2249,2.2249,2.2242,2.2239,2.2235,2.2227,2.2215,2.2209,2.2198,2.2179,2.2176,2.217,2.2167,2.2165,2.2163,2.2149,2.2145,2.2185,2.2185,2.2185,0,0,2.2289,2.2284,2.2286,2.2272,2.2265,2.2259,2.2251,2.2253,2.2244,2.2245,2.2245,2.2243,2.2226,2.2222,2.2232,2.2201,2.2211,2.2209,2.2204,2.2201,2.2199,2.22,2.224,0,0,0,0,0,2.2296,2.2284,2.2286,2.2284,2.227,2.2258,2.2256,2.2256,2.2262,2.2255,2.2251,2.2255,2.2227,2.2236,2.2232,2.2221,2.2194,2.2192,2.2191,2.2181,2.2178,2.2175,0,0,0,0,0,0,2.2295,2.2292,2.2287,2.228,2.2277,2.2258,2.2268,2.2268,2.2263,2.2264,2.2256,2.2255,2.2254,2.2237,2.2234,2.2224,2.2241,2.2193,2.2192,2.2191,2.218,2.2177,2.2175,0,0,0,0,0,2.2294,2.2292,2.2271,2.228,2.2278,2.2275,2.2269,2.2269,2.2265,2.2259,2.2259,2.2265,2.2254,2.2251,2.2235,2.2225,2.2243,2.2242,2.2192,2.2191,2.219,2.2178,0,0,0,0,0,0,2.2294,2.2291,2.227,2.227,2.2286,2.2276,2.2274,2.2269,2.2261,2.226,2.2269,2.227,2.2253,2.2252,2.225,2.2225,2.2245,2.2244,2.2243,2.2191,2.2191,2.219,0,0,0,0,0,0,2.2292,2.229,2.227,2.2277,2.2276,2.2277,2.2275,2.2262,2.226,2.227,2.2271,2.2269,2.2256,2.2252,2.225,2.223,2.2246,2.2245,2.2244,2.2244,2.2191,2.219,0,0,0,0,0,0,2.2292,2.229,2.2277,2.2277,2.2277,2.2267,2.2265,2.2251,2.2267,2.2271,2.2268,2.2269,2.2256,2.2255,2.2251,2.2231,2.223,2.2246,2.2245,2.2245,2.2245,0,0,0,0,0,0,0,2.2291,2.2303,2.2276,2.2277,2.2277,2.2261,2.2261,2.2261,2.2267,2.2268,2.2268,2.2269,2.2252,2.2251,2.225,2.2232,0,0,2.2246,2.2246,0,0,0,0,0,0,0,0,2.2304,2.2303,2.2276,2.2275,2.2275,2.2261,2.2261,2.2261,2.2267,2.2268,2.2268,2.2269,2.2252,2.2251,2.225,0,0,0,0,0,0,0,0,0,0,0,0,0,0,0,2.2276,2.2275,0,2.2261,2.2261,2.2261,2.2267,2.2268,2.2268,2.2268,2.2252,2.2251,2.225,0,0,0,0,0,0,0,0,0,0,0,0,0,0,0,0,0,0,0,0,0,0,0,0,0,0,0,0,0,0,0,0,0,0,0,0,0,0,0,0,0,0,0,0,0,0,0,0,0,0,0,0,0,0,0,0,0,0,0,0,0,0,0,0,0,0,0,0,0]}]]]